880GM KTYS-KMMI

Flight info

Callsign 880GM
Flight time 0h 23m
Altitude 3000
Route KTYS DCT KMMI
Aircraft SR20/L-S/N

Departure

Time 2026-04-26 13:30
Airport McGhee Tyson Airport (KTYS)

Arrival

Time 2026-04-26 13:53
Airport McMinn County Airport (KMMI)
Time Latitude Longitude Altitude Speed Heading
2026-04-26 13:22 35.82270 -83.98305 962 ft 0 kts 224°
2026-04-26 13:29 35.82195 -83.98389 965 ft 46 kts 225°
2026-04-26 13:29 35.81998 -83.98667 973 ft 81 kts 229°
2026-04-26 13:29 35.81510 -83.99309 1338 ft 84 kts 224°
2026-04-26 13:29 35.81075 -83.99865 1480 ft 102 kts 226°
2026-04-26 13:30 35.80521 -84.00503 1662 ft 112 kts 219°
2026-04-26 13:30 35.79929 -84.01099 1941 ft 111 kts 221°
2026-04-26 13:30 35.79387 -84.01781 2182 ft 113 kts 227°
2026-04-26 13:30 35.78864 -84.02480 2466 ft 111 kts 226°
2026-04-26 13:31 35.78345 -84.03184 2712 ft 112 kts 229°
2026-04-26 13:31 35.77816 -84.03885 2966 ft 112 kts 227°
2026-04-26 13:31 35.77284 -84.04598 3161 ft 118 kts 226°
2026-04-26 13:31 35.76685 -84.05344 3190 ft 127 kts 225°
2026-04-26 13:32 35.76044 -84.06131 3235 ft 133 kts 224°
2026-04-26 13:32 35.75371 -84.06978 3188 ft 143 kts 228°
2026-04-26 13:32 35.74704 -84.07896 3202 ft 145 kts 231°
2026-04-26 13:32 35.74055 -84.08848 3264 ft 142 kts 230°
2026-04-26 13:33 35.73456 -84.09709 3523 ft 129 kts 228°
2026-04-26 13:33 35.72932 -84.10654 3510 ft 138 kts 250°
2026-04-26 13:33 35.72612 -84.11716 3595 ft 139 kts 247°
2026-04-26 13:33 35.72199 -84.12858 3387 ft 157 kts 246°
2026-04-26 13:34 35.71749 -84.14149 3114 ft 167 kts 248°
2026-04-26 13:34 35.71299 -84.15464 2975 ft 167 kts 248°
2026-04-26 13:34 35.70867 -84.16757 2950 ft 161 kts 248°
2026-04-26 13:34 35.70562 -84.17594 2899 ft 161 kts 244°
2026-04-26 13:35 35.69931 -84.19220 2914 ft 154 kts 246°
2026-04-26 13:35 35.69506 -84.20402 2950 ft 151 kts 245°
2026-04-26 13:35 35.69057 -84.21552 3012 ft 147 kts 245°
2026-04-26 13:35 35.68646 -84.22696 3027 ft 148 kts 247°
2026-04-26 13:36 35.68236 -84.23848 3044 ft 148 kts 246°
2026-04-26 13:36 35.67821 -84.24999 3068 ft 148 kts 246°
2026-04-26 13:36 35.67400 -84.26152 3077 ft 148 kts 246°
2026-04-26 13:36 35.66971 -84.27303 3115 ft 147 kts 245°
2026-04-26 13:37 35.66504 -84.28418 3129 ft 148 kts 241°
2026-04-26 13:37 35.65959 -84.29484 3145 ft 148 kts 236°
2026-04-26 13:37 35.65471 -84.30598 3119 ft 150 kts 250°
2026-04-26 13:37 35.65147 -84.31813 3127 ft 150 kts 252°
2026-04-26 13:38 35.64812 -84.33030 3108 ft 151 kts 251°
2026-04-26 13:38 35.64469 -84.34248 3100 ft 151 kts 251°
2026-04-26 13:38 35.64106 -84.35466 3116 ft 150 kts 248°
2026-04-26 13:38 35.63693 -84.36636 3134 ft 149 kts 246°
2026-04-26 13:39 35.63256 -84.37786 3131 ft 149 kts 246°
2026-04-26 13:39 35.62842 -84.38940 3165 ft 147 kts 246°
2026-04-26 13:39 35.62428 -84.40088 3144 ft 149 kts 247°
2026-04-26 13:39 35.62018 -84.41249 3150 ft 148 kts 246°
2026-04-26 13:40 35.61597 -84.42395 3146 ft 148 kts 246°
2026-04-26 13:40 35.61170 -84.43553 3153 ft 148 kts 245°
2026-04-26 13:40 35.60739 -84.44689 3178 ft 146 kts 247°
2026-04-26 13:40 35.60356 -84.45849 3155 ft 148 kts 248°
2026-04-26 13:41 35.59947 -84.47013 3153 ft 148 kts 246°
2026-04-26 13:41 35.59507 -84.48154 3143 ft 149 kts 247°
2026-04-26 13:41 35.59479 -84.49373 3159 ft 147 kts 286°
2026-04-26 13:41 35.60080 -84.50367 3151 ft 147 kts 325°
2026-04-26 13:42 35.61060 -84.50711 3136 ft 148 kts
2026-04-26 13:42 35.61998 -84.50251 3131 ft 148 kts 43°
2026-04-26 13:42 35.62475 -84.49171 3164 ft 146 kts 72°
2026-04-26 13:42 35.62822 -84.47999 3161 ft 147 kts 69°
2026-04-26 13:43 35.63177 -84.46837 3188 ft 146 kts 70°
2026-04-26 13:43 35.63520 -84.45658 3166 ft 148 kts 71°
2026-04-26 13:43 35.63860 -84.44461 3148 ft 149 kts 71°
2026-04-26 13:43 35.64210 -84.43270 3179 ft 147 kts 70°
2026-04-26 13:44 35.64585 -84.42104 3167 ft 148 kts 68°
2026-04-26 13:44 35.64805 -84.40892 3170 ft 147 kts 96°
2026-04-26 13:44 35.64380 -84.39778 3166 ft 147 kts 133°
2026-04-26 13:44 35.63485 -84.39201 3155 ft 148 kts 172°
2026-04-26 13:45 35.62506 -84.39480 3139 ft 149 kts 214°
2026-04-26 13:45 35.61882 -84.40470 3137 ft 148 kts 242°
2026-04-26 13:45 35.61490 -84.41647 3123 ft 149 kts 254°
2026-04-26 13:45 35.61216 -84.42841 3201 ft 144 kts 254°
2026-04-26 13:46 35.60909 -84.44022 3177 ft 146 kts 248°
2026-04-26 13:46 35.60541 -84.45195 3157 ft 148 kts 250°
2026-04-26 13:46 35.60169 -84.46368 3165 ft 148 kts 247°
2026-04-26 13:46 35.59754 -84.47524 3153 ft 148 kts 246°
2026-04-26 13:47 35.59181 -84.48554 3155 ft 148 kts 220°
2026-04-26 13:47 35.58241 -84.49049 3143 ft 148 kts 196°
2026-04-26 13:47 35.57257 -84.49400 3169 ft 147 kts 197°
2026-04-26 13:47 35.56265 -84.49712 3146 ft 149 kts 192°
2026-04-26 13:48 35.55253 -84.49967 3150 ft 148 kts 194°
2026-04-26 13:48 35.54265 -84.50299 3159 ft 147 kts 195°
2026-04-26 13:48 35.53280 -84.50649 3150 ft 146 kts 198°
2026-04-26 13:48 35.52375 -84.51010 3141 ft 128 kts 199°
2026-04-26 13:49 35.51563 -84.51339 3071 ft 121 kts 200°
2026-04-26 13:49 35.50776 -84.51701 2874 ft 119 kts 200°
2026-04-26 13:49 35.50031 -84.52018 2725 ft 107 kts 199°
2026-04-26 13:49 35.49359 -84.52294 2616 ft 97 kts 199°
2026-04-26 13:50 35.48710 -84.52554 2426 ft 99 kts 198°
2026-04-26 13:50 35.48064 -84.52804 2266 ft 96 kts 199°
2026-04-26 13:50 35.47453 -84.53055 2144 ft 92 kts 199°
2026-04-26 13:50 35.46839 -84.53312 2014 ft 91 kts 198°
2026-04-26 13:51 35.46240 -84.53572 1925 ft 92 kts 198°
2026-04-26 13:51 35.45645 -84.53832 1849 ft 91 kts 199°
2026-04-26 13:51 35.45038 -84.54078 1748 ft 92 kts 197°
2026-04-26 13:51 35.44438 -84.54336 1669 ft 91 kts 197°
2026-04-26 13:52 35.43842 -84.54566 1601 ft 90 kts 197°
2026-04-26 13:52 35.43231 -84.54794 1477 ft 94 kts 201°
2026-04-26 13:52 35.42604 -84.55068 1338 ft 96 kts 200°
2026-04-26 13:52 35.41982 -84.55328 1240 ft 94 kts 198°
2026-04-26 13:53 35.41375 -84.55586 1125 ft 91 kts 198°
2026-04-26 13:53 35.40772 -84.55819 952 ft 88 kts 202°
2026-04-26 13:53 35.40236 -84.56036 848 ft 72 kts 197°
2026-04-26 13:53 35.39835 -84.56201 827 ft 44 kts 196°
2026-04-26 13:54 35.39733 -84.56237 823 ft 5 kts 186°
2026-04-26 13:54 35.39605 -84.56198 820 ft 13 kts 159°
2026-04-26 13:54 35.39598 -84.56194 819 ft 0 kts 158°